Regional Weather Roundup
Issued by NWS

Home | Current Version | Previous Version | Text Only | Print | Product List | Glossary Off
Versions: 1 2 3 4 5 6 7 8 9 10 11 12 13 14 15 16 17 18 19 20 21 22 23 24 25 26 27 28 29 30 31 32 33 34 35 36 37 38 39 40 41 42 43 44 45 46 47 48 49 50

725
ASUS43 KFSD 230510
RWRSD

WEATHER ROUNDUP FOR SOUTH DAKOTA
NATIONAL WEATHER SERVICE SIOUX FALLS SD
1200 AM CDT SAT JUL 23 2016

NOTE: "FAIR" INDICATES FEW OR NO CLOUDS BELOW 12,000 FEET WITH NO
SIGNIFICANT WEATHER AND/OR OBSTRUCTIONS TO VISIBILITY.


SDZ001>005-009-010-012>017-230600-
NORTHWEST AND NORTH CENTRAL SOUTH DAKOTA

CITY           SKY/WX    TMP DP  RH WIND       PRES   REMARKS
BUFFALO          N/A     72  62  71 E17       29.86R
FAITH            N/A     71  59  65 E20G26    29.95S
MOBRIDGE       CLOUDY    71  62  73 E20G25    29.91F
$$

SDZ012>016-024>037-041>051-057-063-072>074-230600-
SOUTHWEST AND SOUTH CENTRAL SOUTH DAKOTA

CITY           SKY/WX    TMP DP  RH WIND       PRES   REMARKS
RAPID CTY ARPT CLOUDY    76  56  49 S9        29.92F
PIERRE         CLOUDY    77  69  76 E15G25    29.93R
CUSTER         CLOUDY    69  49  48 SW3       30.14R
ELLSWORTH AFB  CLOUDY    75  58  54 SE6       29.91F
PHILIP         CLOUDY    80  69  69 E17       29.91R
PINE RIDGE     CLOUDY    80  52  37 S17G26    29.92F
WINNER         FAIR      84  74  71 E10       29.91F
$$

SDZ004>011-016>023-039-040-230600-
NORTHEAST SOUTH DAKOTA

CITY           SKY/WX    TMP DP  RH WIND       PRES   REMARKS
ABERDEEN       CLOUDY    77  68  73 NW9       30.00R
WATERTOWN      CLOUDY    79  66  64 E7        29.98F
BROOKINGS      CLOUDY    77  71  82 E7        29.95F
SISSETON         N/A     72  70  93 CALM      29.98R
$$

SDZ017-020-022-023-036>040-048>070-230600-
SOUTHEAST SOUTH DAKOTA

CITY           SKY/WX    TMP DP  RH WIND       PRES   REMARKS
SIOUX FALLS    CLOUDY    82  78  88 E8        29.94R
HURON          MOCLDY    81  76  84 NE7       29.93S
CHAMBERLAIN    CLOUDY    83  79  88 E6        29.92F
MITCHELL       MOCLDY    82  78  88 E6        29.92R
YANKTON        MOCLDY    82  77  83 E7        29.89F
$$

ABBREVIATIONS USED IN REMARKS
   TC - TEMPERATURE IN CELSIUS
  WCI - WIND CHILL INDEX
   HX - HEAT INDEX
  VSB - VISIBILITY





USA.gov is the U.S. government's official web portal to all federal, state and local government web resources and services.